C/2018 N1 ( NEOWISE )

Japanese version
Home page
Updated on October 28, 2018

---------------------------------------------------------------------

* Profile

Discovery Date July 2, 2018
Magnitude 16 mag
Discoverer Near-Earth Object Wide-field Infrared Survey Explorer

* Pictures

* Orbital Elements

Epoch 2018 July 21.0 TT = JDT 2458320.5
T 2018 Aug. 1.98608 TT                                  MPCW
q   1.3073502            (2000.0)            P               Q
z  +0.0029419      Peri.  354.56231     +0.46200652     -0.82535782
 +/-0.0002180      Node   292.43988     -0.79988424     -0.54584664
e   0.9961539      Incl.  159.44289     -0.38306028     +0.14434654
From 235 observations 2018 June 29-Oct. 6, mean residual 0".5.

* Finding Charts

* Magnitudes Graph

        m1 = 10.0 + 5 log d + 10.0 log r

---------------------------------------------------------------------

The orbital elements are published on M.P.E.C. 2018-U70.
The charts are made with StellaNavigator Ver.10 (AstroArts).
The magnitudes graphs are made with Comet for Windows.

---------------------------------------------------------------------

Copyright(C) Seiichi Yoshida (comet@aerith.net). All rights reserved.